Miscellaneous Local Product
Issued by NWS North Platte, NE

Home | Current Version | Previous Version | Graphics & Text | Print | Product List | Glossary On
Versions: 1 2 3 4 5 6 7 8 9 10 11 12 13 14 15 16 17 18 19 20 21 22 23 24 25 26 27 28 29 30 31 32 33 34 35 36 37 38 39 40 41 42 43 44 45 46 47 48 49 50
000
AXUS43 KLBF 270810
MISLBF


WESTERN AND NORTH CENTRAL NEBRASKA HOURLY WEATHER ROUNDUP
NATIONAL WEATHER SERVICE NORTH PLATTE NE
300 AM CDT FRI MAR 27 2015

***STATIONS NOT REPORTING VARIABLES SUCH AS SKY/WEATHER OR
PRESSURE ARE PROVIDED BY THE NEBRASKA DEPARTMENT OF
ROADS...RAWS...AND APRS NETWORKS...AND ARE NOT UNDER
NATIONAL WEATHER SERVICE QUALITY CONTROL***

...OBSERVATIONS IN AND NEAR THE EASTERN PANHANDLE OF NEBRASKA...

CITY           SKY/WX    TMP DP  RH WIND       PRES   REMARKS
PINE RIDGE     CLOUDY    34  31  88 S6        30.16S WCI  29
CHADRON        CLOUDY    38  33  82 S5        30.14F WCI  34
ALLIANCE       CLOUDY    35  31  85 SE6       30.16F WCI  30
SIDNEY         CLOUDY    37  30  75 SE6       30.16F WCI  32
WHITECLAY        N/A     30  28  93 E5          N/A  WCI  25
CRESCENT LAKE    N/A     34  32  92 SE5         N/A  WCI  30
BIG SPRINGS      N/A     39  30  71 E5          N/A
$$

...OBSERVATIONS IN NORTH CENTRAL NEBRASKA...

CITY           SKY/WX    TMP DP  RH WIND       PRES   REMARKS
VALENTINE      CLOUDY    31  25  78 CALM      30.21F
THEDFORD       CLOUDY    33  28  85 E3        30.21F
AINSWORTH      CLOUDY    32  28  86 CALM      30.22S
O`NEILL        PTCLDY    26  22  87 NE5       30.25R WCI  20
ORD            MOCLDY    28  23  81 N6        30.23R WCI  22
BROKEN BOW     CLOUDY    33  26  75 NW3       30.22S
BROWNLEE         N/A     30  28  93 S3          N/A
SPRINGVIEW       N/A     27  24  87 CALM        N/A
BREWSTER         N/A     33  28  79 CALM        N/A
ROSE             N/A     32  32 100 MISG        N/A
NEWPORT          N/A     30  30 100 CALM        N/A
SARGENT          N/A     31  26  82 CALM        N/A
COMSTOCK         N/A     34  29  82 CALM        N/A
EWING            N/A     25  22  89 CALM        N/A
$$

...OBSERVATIONS IN SOUTHWEST NEBRASKA AND FAR NORTHEAST COLORADO...

CITY           SKY/WX    TMP DP  RH WIND       PRES   REMARKS
WRAY           CLOUDY    40  30  67 E3        30.18S
IMPERIAL       FLURRIES  36  28  73 E6        30.22R WCI  31
OGALLALA       LGT SNOW  32  31  94 SE3       30.22S
NORTH PLATTE   CLOUDY    32  26  78 E7        30.23R WCI  26
MCCOOK         CLOUDY    35  28  75 E6        30.24R WCI  30
LEXINGTON      CLOUDY    33  27  77 NE7       30.24R WCI  27
PAXTON           N/A     34  29  82 E3          N/A
SUTHERLAND       N/A     27  26  94 CALM        N/A
BRADY            N/A     31  25  77 CALM        N/A
GOTHENBURG       N/A     32  25  76 NE5         N/A  WCI  27
CALLAWAY         N/A     31  27  85 NE7         N/A  WCI  24
$$

...NORTH PLATTE AREA...

CITY           SKY/WX    TMP DP  RH WIND       PRES   REMARKS
AIRPORT        CLOUDY    32  26  78 E7        30.23R WCI  26
DOWNTOWN         N/A     31  27  83 CALM        N/A
$$

...SOME WEATHER OBSERVATIONS FROM AROUND THE REGION...

CITY           SKY/WX    TMP DP  RH WIND       PRES   REMARKS
DENVER         MOCLDY    41  30  65 S12       30.16F
LARAMIE        CLOUDY    36  27  69 W7        30.22S WCI  30
CHEYENNE       CLOUDY    43  28  55 W8        30.17F
SCOTTSBLUFF    LGT RAIN  40  32  73 E9        30.16R WCI  34
RAPID CITY     CLOUDY    33  27  78 SE9       30.13F WCI  25
PIERRE         CLOUDY    27  20  75 E7        30.24F WCI  19
WINNER         CLOUDY    30  22  72 E9        30.25R WCI  22
SIOUX FALLS    CLEAR     18  12  77 N3        30.26S
OMAHA          PTCLDY    29  23  78 N10       30.24R WCI  20
GRAND ISLAND   PTCLDY    24  21  88 NW8       30.24R WCI  15
KANSAS CITY    CLOUDY    36  33  89 N14       30.16S WCI  27
WICHITA        MOCLDY    42  35  76 NE22G30   30.11R
HAYS           CLOUDY    36  27  69 NE13      30.21S WCI  27
LIBERAL        PTCLDY    39  28  65 N9        30.19S WCI  33
GOODLAND       CLOUDY    37  30  75 E7        30.19R WCI  32
$$



USA.gov is the U.S. government's official web portal to all federal, state and local government web resources and services.